Location: Colebrook
(42.0017°N, 73.0973°W)
Time: 20:31:17
(UTC-04:00)

ISS - Pass Details

Date: 02 October 2021
Orbit: 417 x 423 km, 51.6° (Epoch: 21 October)

Event Time Altitude Azimuth Distance (km) Brightness Sun altitude
Rises 21:19:52 0° 294° (WNW) 2,364 1.2 -31.3°
Reaches altitude 10° 21:22:14 10° 280° (W) 1,498 -0.2 -31.7°
Enters shadow 21:22:21 11° 278° (W) 1,461 -0.2 -31.7°
